FENGYUN 1C DEB, 31561

Orbit data source: Space-Track

FENGYUN 1C DEB, 31561 is space debris in SSO originally from a launch on Mon, 10 May 1999 UTC launched from the Taiyaun Space Center, China (TSC). Fengyun 1C debris stems from the Chinese weather satellite Fengyun-1C, which was intentionally destroyed by a Chinese anti-satellite missile in 2007. This event dramatically increased the amount of space debris, with thousands of trackable fragments posing hazards to satellites and human spaceflight. The Fengyun 1C debris cloud has become a focal point in discussions about space sustainability and the need for international regulations to prevent the creation of new debris.

Loading next visibility...
Identifier
31561, 1999-025BZC
Orbit
SSO
Country
Flag of CNCN / PRC
Related business
Manufacturer
Unknown
Mission
Spacecraft
Bus & Motor
Unknown
Mass
Unknown
Launch date (UTC)
1999-05-10 (27 years ago)
Launch vehicle
Unknown
Launch site
Taiyaun Space Center, China (TSC)
Object type
Payload
Rocket body
Debris
Shape & HBR
Unknown shape, 0.1 m
Radar Cross Section
Medium (>0.1 m² and <1 m²)

Expand to show TLE details & history
Last TLE update: 20 hours ago

TLE from 20 hours ago
0 FENGYUN 1C DEB
1 31561U 99025BZC 26166.73691426  .00000644  00000-0  43568-3 0  9993
2 31561  98.7250 160.0634 0056976  26.8940 153.3835 14.03010606977722
Epoch: 2026-06-15T17:41Z
TLE epoch observation values (Epoch: 2026-06-15T17:41:09.392Z)
Latitude
-0.68068°
Longitude
170.65133°
Altitude
923.413 km
Speed
7.371 km/s
True Right ascension
22h 39m 50s
True Declination
0° 40' 36"
Sunlit
Object was in daylight at epoch
Visualization orbit readout
Latitude
Unknown
Longitude
Unknown
Altitude
Unknown
Speed
Unknown
Apparent Right ascension
Unknown
Apparent Declination
Unknown
Sunlit
N/A
Visualization observer readout
Local Sidereal Time
23:52:16
Azimuth
Unknown
Elevation
Unknown
Doppler factor
Unknown
Orbital elements
Apogee altitude
921.928 km
Perigee altitude
839.213 km
Semi-major axis
7,258.708 km
Eccentricity
0.0057
Inclination
98.725°
RAAN
160.0634°
Arg. of periapsis
26.894°
True anomaly
153.67416°
Mean anomaly
153.3835°
Eccentric anomaly
153.52901°
Mean motion
3.50957 °/min
Orbital period
102.58 mins
BSTAR
0.00043568
Loading maneuver chart data...
Computing Atmospheric mass density...

Documentation

Showing up to 5 results
|